Wind_Speed
13 13 11 10 11 13 16 17 18 19 21 22 23 22 21 22 23 23 23 24 25 25 25 25 25 24 25 25 24 23 22 22 22 22 21 21 21 21 20 20 20 20 20 20
12 11 11 11 12 14 16 17 19 20 21 22 23 22 23 24 24 23 24 25 25 25 25 24 24 24 25 24 23 22 21 20 20 20 19 19 20 20 19 18 17 17 17 17
12 12 13 14 14 15 15 16 19 20 21 22 23 22 23 24 24 25 24 24 24 24 24 24 24 24 23 22 21 20 19 19 18 18 17 17 18 18 17 17 16 16 16 15
12 12 13 13 13 14 15 16 18 18 19 20 21 23 23 24 24 24 24 23 23 23 23 22 22 21 20 19 18 18 18 17 17 16 16 16 16 16 16 16 15 15 15 15
11 11 13 13 12 13 15 16 17 17 18 19 21 22 23 23 23 23 23 22 22 21 21 20 19 19 18 17 16 16 15 15 15 15 14 15 14 14 14 14 14 13 13 13
9 10 11 11 11 12 15 16 17 17 18 19 20 21 21 21 21 21 21 20 20 19 18 18 17 16 16 15 14 14 13 13 13 13 13 12 12 11 11 11 11 11 11 10
8 10 11 11 11 12 14 15 17 17 18 18 19 19 19 19 19 19 18 18 17 16 16 15 14 14 13 12 12 11 11 11 11 11 10 9 9 8 8 8 8 8 8 8
8 9 9 10 11 11 12 14 15 16 17 17 18 18 18 18 18 17 16 15 14 14 14 13 12 11 10 10 9 10 10 9 8 8 7 6 5 6 6 6 5 5 5 5
8 8 8 9 9 10 11 12 13 15 16 16 16 16 16 17 16 15 14 14 13 13 12 11 10 9 9 9 8 8 7 5 5 4 4 4 4 3 3 3 3 2 2 2
6 6 6 7 8 9 11 12 13 13 14 14 14 14 15 15 15 14 13 13 12 11 10 9 8 7 6 6 5 4 3 3 2 2 2 1 1 1 1 1 1 1 1 1
6 6 7 7 7 9 10 11 11 12 12 13 14 14 14 15 14 13 13 12 10 9 8 7 6 4 3 3 2 1 1 1 1 2 3 3 3 3 2 2 2 2 2 3
6 6 6 7 7 8 9 10 11 11 11 12 13 13 13 13 13 12 11 10 9 7 6 5 4 3 2 2 2 2 2 3 4 4 4 4 4 5 4 4 4 4 3 4
5 5 5 6 6 6 8 9 10 10 11 12 12 12 12 12 11 10 10 9 8 6 6 5 5 4 3 4 4 4 5 6 6 6 6 6 6 6 6 6 6 5 6 6
4 4 5 5 6 6 8 8 9 10 11 11 12 12 11 11 10 10 9 8 7 6 5 5 5 5 5 5 6 6 6 6 7 7 7 8 8 8 8 8 8 8 8 8
4 4 5 5 6 6 7 8 9 10 11 11 11 11 11 10 10 10 9 8 7 7 6 6 6 6 7 7 7 7 8 8 9 9 9 9 9 10 10 10 11 11 12 12
4 4 4 5 6 6 7 7 8 9 10 10 10 10 10 10 10 10 10 9 8 8 7 7 8 8 8 8 8 9 10 10 10 11 11 11 11 12 12 13 13 14 14 14
4 4 4 5 6 6 6 6 7 8 8 8 9 10 10 9 10 10 9 9 9 9 9 9 9 9 10 10 10 10 11 11 12 12 12 13 13 13 14 14 15 15 15 16
4 4 4 5 6 5 5 5 6 6 7 8 8 9 9 9 9 9 9 9 9 9 9 9 10 10 11 11 11 11 11 12 13 13 13 13 14 14 14 15 15 16 16 16
4 4 4 5 5 5 4 4 4 5 6 7 7 7 8 9 9 9 9 9 9 9 10 10 10 11 11 11 12 12 12 13 14 14 14 14 14 14 15 15 15 15 16 16
5 4 4 4 4 4 4 3 3 3 4 5 5 6 7 7 8 8 9 9 9 9 10 10 10 11 11 12 12 12 13 13 14 14 14 14 14 14 14 14 15 15 15 15
5 5 5 4 4 4 3 2 2 3 3 4 4 5 5 6 7 8 9 9 9 9 9 10 10 10 11 11 12 12 12 13 13 13 13 13 13 14 14 14 14 14 14 15
6 6 5 5 4 3 2 2 1 2 2 3 3 4 5 6 7 7 8 8 8 8 9 9 10 10 10 11 11 11 12 12 12 12 12 13 13 13 13 13 13 13 13 14
7 6 6 5 4 3 2 1 0 1 1 2 3 3 4 5 6 6 6 6 6 7 8 8 9 9 9 10 10 10 11 11 11 12 12 12 12 13 13 13 12 13 13 13
8 7 7 6 5 4 3 2 2 1 1 1 2 2 3 3 4 4 5 5 6 6 7 7 7 8 8 8 9 9 10 10 11 11 12 12 11 11 11 11 11 11 11 11
9 9 8 8 7 6 6 5 4 4 3 2 2 2 2 2 2 3 3 4 4 5 6 6 6 6 7 8 8 8 8 9 9 10 10 10 10 10 9 9 9 9 9 9
12 11 11 10 9 9 9 8 7 7 6 5 4 4 3 3 3 3 3 3 4 4 4 5 5 5 5 6 6 6 7 7 7 8 8 7 7 7 7 7 7 6 6 7
14 14 13 12 12 12 11 11 11 10 9 8 7 7 6 5 5 5 5 4 4 4 4 4 4 5 5 5 5 5 5 5 6 6 6 5 5 4 4 4 4 4 4 4
Wind_Direction
231 225 225 229 238 243 252 258 265 273 279 284 287 290 293 295 294 294 294 293 293 293 293 293 292 291 291 289 286 285 284 282 281 280 279 278 278 279 280 281 281 280 280 277
232 231 235 246 250 256 258 263 268 272 279 281 286 288 290 292 294 294 294 295 294 292 292 293 292 290 291 288 287 286 284 282 281 281 280 279 279 279 280 280 280 281 280 279
232 234 239 247 252 259 260 266 270 275 282 285 287 290 294 295 296 298 299 297 295 294 294 293 292 290 289 287 286 284 283 282 281 280 279 280 279 278 278 278 278 279 278 281
230 232 240 249 256 267 271 274 277 281 285 288 289 296 297 298 299 300 301 299 296 295 294 293 292 290 289 287 286 285 283 282 279 277 277 277 278 277 276 278 276 276 277 278
235 232 242 245 249 262 276 282 285 288 290 294 297 299 300 301 302 302 301 299 296 295 294 293 290 289 289 288 286 285 283 281 281 279 277 277 275 276 278 277 274 274 276 276
236 243 253 255 260 268 278 285 291 293 296 298 301 302 305 306 305 304 304 303 298 295 296 293 291 290 289 289 288 285 283 282 281 281 280 278 274 276 277 277 275 271 272 275
249 249 251 259 264 272 280 290 296 297 300 303 306 308 310 311 309 308 307 307 303 299 299 298 295 294 293 292 289 287 285 283 282 282 279 275 272 270 270 277 276 274 273 276
255 255 259 263 266 274 287 292 299 302 304 307 311 312 315 317 318 317 315 312 309 306 305 303 299 296 297 292 291 288 286 281 279 282 279 270 263 262 266 268 271 275 277 277
259 266 269 275 278 283 292 299 304 308 310 312 316 319 323 326 326 325 322 320 317 312 310 308 305 298 295 294 295 290 287 283 277 273 267 261 264 270 271 274 279 282 282 283
261 274 281 280 284 288 296 301 308 316 319 322 325 326 329 332 331 331 330 328 323 319 316 312 312 306 300 298 297 290 282 274 257 246 237 233 265 280 295 325 340 345 358 6
271 275 280 287 294 301 313 316 319 320 324 328 332 333 334 335 337 338 337 337 334 333 332 328 322 320 312 311 311 317 339 122 122 129 123 106 92 89 92 85 81 68 55 37
279 279 281 292 296 305 315 324 329 331 332 335 336 337 338 341 342 345 348 350 351 352 356 359 4 12 19 17 34 54 82 95 104 110 106 98 89 82 79 84 81 69 60 48
279 281 289 299 305 310 316 326 333 338 340 341 343 344 346 349 352 357 2 8 12 18 22 27 32 43 54 63 73 83 95 99 98 99 98 95 90 86 84 81 78 76 75 69
275 284 296 307 315 320 328 335 340 343 346 348 352 355 359 2 6 10 14 21 29 33 36 41 45 55 72 76 83 86 96 97 98 100 99 96 93 89 86 84 81 79 79 76
283 288 298 308 315 321 332 341 347 351 354 356 1 7 11 14 16 20 27 37 46 52 57 60 68 78 83 84 85 87 93 96 99 97 97 97 93 89 87 86 84 81 82 81
297 299 306 312 320 325 333 339 345 352 359 3 7 13 20 24 27 33 41 49 59 66 68 73 81 86 85 84 89 95 98 99 99 97 95 95 92 90 89 87 86 84 84 83
301 302 309 312 321 332 338 342 347 355 2 6 11 17 24 31 35 39 47 58 67 73 78 83 85 88 89 91 94 98 99 99 98 98 98 95 93 91 90 89 89 88 86 85
310 310 312 314 322 331 332 337 350 3 10 15 20 26 32 38 44 48 55 62 69 74 79 83 86 91 94 95 95 97 98 99 100 100 98 95 94 93 92 90 88 86 86 84
303 302 310 319 327 331 330 334 350 3 11 16 20 30 40 46 51 57 63 68 72 76 81 87 91 94 95 97 99 101 101 101 101 99 97 96 95 94 92 90 88 87 86 85
293 296 307 317 329 336 333 335 345 359 11 21 29 38 48 54 58 62 67 71 74 78 85 92 94 94 96 98 99 100 100 101 101 100 98 97 96 94 92 90 89 88 86 84
285 288 300 312 322 331 336 339 358 11 20 31 43 51 59 66 67 69 72 75 79 83 88 94 97 98 99 101 102 102 103 103 102 101 99 98 96 94 93 92 91 89 86 83
282 282 289 299 307 318 328 338 359 23 41 52 63 67 71 75 78 80 79 81 85 89 94 98 100 101 102 103 103 103 104 104 104 103 102 101 100 98 96 94 92 88 85 81
276 277 279 282 284 285 290 291 331 53 68 74 81 85 82 83 88 89 88 88 89 96 102 104 104 104 105 106 106 106 107 106 106 105 104 103 102 100 98 95 91 87 84 79
270 271 273 273 268 258 254 247 233 206 141 118 109 104 96 93 98 100 98 97 99 103 106 108 110 111 111 111 111 112 111 110 109 108 106 104 102 100 98 94 91 87 83 77
264 266 267 264 257 248 243 237 231 226 217 199 183 167 151 135 126 121 118 119 120 119 116 114 116 118 119 119 119 118 117 116 115 113 110 108 105 102 98 94 90 85 80 74
260 259 260 257 252 247 242 238 236 233 228 222 218 213 207 202 192 177 165 158 153 148 141 133 130 131 131 131 130 130 129 127 124 121 118 116 112 107 102 96 89 81 73 65
256 255 255 254 252 247 243 239 237 236 232 230 229 228 225 220 217 212 206 201 195 190 184 178 172 167 164 160 157 155 152 147 143 138 134 129 122 113 102 90 78 68 58 46
Height
5780 5781 5783 5785 5787 5789 5789 5789 5788 5787 5785 5783 5781 5779 5777 5776 5773 5773 5771 5769 5767 5765 5763 5761 5759 5757 5755 5754 5752 5751 5750 5750 5749 5749 5748 5747 5747 5747 5746 5746 5746 5746 5746 5746
5778 5779 5781 5783 5784 5785 5785 5785 5785 5783 5782 5779 5776 5774 5773 5771 5768 5767 5765 5763 5761 5759 5757 5755 5753 5751 5749 5747 5746 5745 5744 5744 5743 5743 5742 5742 5741 5741 5741 5741 5741 5741 5741 5741
5775 5777 5779 5781 5781 5781 5781 5781 5781 5779 5779 5775 5772 5771 5768 5766 5764 5761 5759 5757 5755 5752 5750 5748 5746 5744 5743 5741 5740 5739 5739 5738 5738 5737 5737 5736 5736 5736 5736 5736 5736 5736 5736 5736
5772 5775 5776 5780 5778 5778 5778 5777 5776 5774 5773 5771 5768 5766 5763 5761 5758 5755 5753 5751 5748 5746 5744 5742 5740 5738 5737 5736 5735 5734 5733 5733 5733 5732 5732 5732 5732 5732 5732 5732 5732 5732 5732 5732
5770 5771 5773 5774 5774 5775 5775 5774 5772 5771 5769 5767 5764 5762 5759 5756 5753 5750 5747 5745 5743 5740 5738 5736 5735 5733 5732 5731 5730 5729 5729 5728 5728 5727 5727 5727 5727 5728 5728 5728 5728 5728 5728 5729
5768 5769 5769 5771 5771 5771 5772 5770 5769 5767 5765 5763 5760 5758 5755 5751 5748 5745 5742 5739 5737 5735 5733 5731 5730 5729 5727 5727 5726 5725 5725 5724 5724 5724 5724 5724 5724 5724 5724 5724 5725 5725 5725 5726
5765 5766 5766 5768 5768 5769 5770 5769 5766 5763 5761 5759 5756 5754 5750 5746 5743 5740 5738 5735 5733 5731 5729 5727 5726 5725 5724 5723 5722 5722 5722 5721 5721 5721 5721 5721 5721 5721 5722 5722 5722 5722 5723 5723
5764 5764 5767 5765 5765 5766 5766 5764 5762 5760 5758 5756 5753 5749 5746 5743 5739 5737 5734 5731 5729 5727 5726 5724 5723 5721 5720 5720 5719 5719 5719 5718 5719 5718 5718 5719 5719 5719 5720 5720 5720 5721 5721 5722
5763 5764 5763 5762 5763 5763 5762 5761 5759 5757 5755 5752 5749 5747 5743 5740 5737 5734 5731 5729 5726 5724 5723 5722 5720 5719 5718 5718 5717 5717 5717 5717 5717 5717 5717 5718 5718 5719 5719 5719 5720 5720 5720 5721
5760 5760 5761 5761 5761 5761 5759 5758 5756 5754 5752 5749 5747 5744 5741 5738 5735 5732 5729 5726 5724 5722 5721 5719 5718 5717 5716 5716 5716 5715 5716 5716 5716 5717 5717 5718 5718 5718 5719 5719 5720 5720 5720 5721
5759 5759 5759 5760 5759 5758 5757 5755 5754 5752 5750 5748 5745 5742 5739 5736 5733 5731 5728 5725 5723 5721 5720 5718 5717 5716 5716 5715 5715 5715 5716 5716 5716 5717 5717 5718 5719 5719 5719 5720 5720 5720 5721 5721
5759 5759 5759 5759 5758 5757 5756 5754 5752 5751 5749 5746 5744 5741 5738 5735 5732 5730 5727 5724 5722 5721 5719 5718 5717 5716 5716 5716 5716 5716 5717 5717 5718 5718 5719 5719 5720 5720 5720 5721 5721 5721 5721 5721
5758 5758 5758 5758 5757 5756 5755 5753 5752 5750 5748 5745 5742 5740 5737 5734 5732 5729 5727 5725 5723 5721 5720 5719 5718 5718 5718 5718 5718 5718 5718 5719 5719 5720 5721 5721 5722 5722 5722 5723 5722 5722 5723 5723
5758 5758 5757 5757 5756 5755 5754 5752 5751 5749 5747 5744 5742 5739 5737 5734 5732 5730 5727 5726 5724 5723 5722 5721 5720 5720 5720 5720 5720 5720 5721 5721 5722 5722 5723 5723 5724 5724 5724 5724 5725 5725 5725 5725
5757 5757 5757 5756 5755 5754 5753 5752 5751 5749 5747 5744 5742 5740 5737 5735 5733 5731 5729 5727 5726 5725 5724 5723 5723 5723 5723 5723 5723 5723 5723 5724 5724 5725 5725 5726 5727 5727 5727 5727 5727 5727 5728 5728
5756 5756 5756 5755 5755 5754 5753 5752 5750 5749 5747 5745 5743 5740 5738 5736 5734 5732 5730 5729 5728 5727 5727 5726 5726 5726 5726 5726 5726 5726 5727 5727 5727 5728 5729 5729 5730 5730 5731 5731 5731 5731 5731 5732
5755 5755 5755 5755 5754 5753 5752 5751 5750 5748 5747 5745 5743 5742 5740 5738 5736 5734 5733 5732 5731 5730 5730 5729 5729 5729 5729 5729 5730 5730 5731 5731 5731 5732 5733 5733 5734 5734 5735 5735 5735 5735 5736 5736
5755 5755 5754 5754 5753 5753 5752 5751 5750 5749 5747 5746 5744 5743 5741 5740 5738 5737 5736 5735 5734 5734 5733 5733 5733 5733 5733 5733 5733 5734 5734 5735 5735 5736 5737 5737 5738 5738 5739 5739 5739 5740 5740 5740
5754 5754 5754 5754 5753 5752 5751 5751 5750 5749 5748 5747 5746 5745 5743 5742 5741 5740 5739 5739 5738 5737 5737 5737 5737 5737 5737 5737 5737 5738 5739 5739 5739 5740 5741 5742 5742 5743 5743 5743 5744 5744 5744 5745
5754 5754 5754 5753 5752 5752 5751 5751 5750 5749 5749 5748 5747 5746 5745 5745 5744 5743 5742 5742 5742 5741 5741 5741 5741 5741 5741 5741 5742 5742 5743 5743 5744 5745 5745 5746 5747 5747 5747 5748 5748 5749 5749 5749
5753 5753 5753 5753 5752 5752 5751 5751 5750 5750 5750 5749 5749 5748 5748 5747 5747 5746 5746 5746 5746 5745 5745 5745 5745 5745 5746 5746 5746 5747 5747 5748 5748 5749 5750 5750 5751 5751 5752 5752 5753 5753 5753 5753
5753 5753 5753 5752 5752 5752 5751 5751 5751 5751 5751 5750 5750 5750 5750 5750 5749 5749 5749 5749 5749 5749 5749 5749 5749 5749 5750 5750 5750 5751 5751 5752 5753 5753 5754 5754 5755 5755 5756 5756 5757 5757 5757 5757
5752 5752 5752 5752 5752 5752 5751 5752 5752 5752 5752 5752 5752 5752 5752 5752 5752 5752 5752 5752 5752 5752 5752 5753 5753 5753 5754 5754 5754 5755 5755 5756 5756 5757 5757 5758 5758 5759 5759 5760 5760 5760 5760 5760
5750 5751 5751 5751 5751 5751 5752 5752 5752 5753 5753 5753 5753 5753 5754 5754 5754 5754 5755 5755 5755 5755 5756 5756 5756 5756 5757 5757 5758 5758 5759 5759 5760 5760 5761 5761 5762 5762 5763 5763 5764 5764 5764 5764
5748 5749 5749 5750 5750 5750 5751 5752 5752 5753 5753 5754 5754 5754 5755 5755 5756 5756 5757 5757 5757 5757 5758 5758 5759 5759 5760 5760 5761 5761 5762 5762 5763 5763 5764 5765 5765 5765 5766 5766 5766 5766 5766 5766
5745 5746 5747 5748 5748 5749 5750 5750 5751 5752 5753 5753 5754 5755 5755 5756 5756 5757 5758 5758 5759 5759 5760 5760 5761 5761 5762 5762 5763 5764 5764 5765 5765 5766 5766 5767 5767 5768 5768 5768 5768 5768 5768 5768
5742 5743 5744 5745 5745 5746 5747 5748 5749 5751 5752 5753 5753 5754 5755 5756 5756 5757 5758 5759 5759 5760 5761 5761 5762 5762 5763 5764 5764 5765 5766 5766 5767 5768 5768 5769 5769 5769 5769 5770 5769 5769 5769 5769